Flag for Paraguay Weather past 2 weeks in Ciudad del Este, Paraguay

Now
86 °F

Heavy rain. Partly sunny.


Feels Like: 95 °F
Forecast: 72 / 78 °F
Wind: 17 mph from Northwest

Location: Foz Do Iguacu Aeroporto

Current Time: Dec 21, 2014 at 2:22:25 PM

Latest Report: Dec 21, 2014 at 2:00 PM


Visibility: 1 mi

Pressure: 29.59 "Hg

Humidity: 70%

Dew point: 75 °F

Location of Ciudad del EsteLocation

Historic Weather in Ciudad del Este — Graph

°F

Ciudad del Este temperature yesterday

Maximum temperature yesterday: 93 °F (at 2:00 PM)
Minimum temperature yesterday: 73 °F (at 2:00 AM)
Average temperature yesterday: 84 °F

Past Weeks' High & Low Weather Summary

 TemperatureHumidityPressure
High93 °F (Dec 7, 1:00 PM)100% (Dec 8, 3:00 PM)29.98 "Hg (Dec 8, 3:00 PM)
Low37 °F (Dec 8, 3:00 PM)41% (Dec 6, 5:00 PM)29.56 "Hg (Dec 20, 5:00 PM)
Average79 °F79%29.81 "Hg
* Reported Dec 6 1:00 PM — Dec 21 1:00 PM, Ciudad del Este, Weather by CustomWeather, © 2014

Note: Actual official high and low records may vary slightly from our data, if they occured in-between our weather recording intervals... More about our weather records

Advertising

Ciudad del Este weather history for previous 24 hours

 ConditionsComfort  
Time TempWeatherWind HumidityBarometerVisibility
1:00 PM
Dec 21
86 °FPartly sunny.16 mph70%29.62 "HgN/A
12:00 PM84 °FScattered showers. Partly sunny.20 mph74%29.62 "HgN/A
11:00 AM84 °FPartly sunny.17 mph79%29.65 "HgN/A
10:00 AM82 °FBroken clouds.18 mph79%29.68 "HgN/A
9:00 AM79 °FPartly sunny.9 mph89%29.68 "HgN/A
8:00 AM75 °FOvercast.7 mph94%29.68 "HgN/A
7:00 AM75 °FRain showers. Overcast.12 mph94%N/A1 mi
6:00 AM77 °FLight rain. Overcast.14 mph89%29.65 "Hg2 mi
5:00 AM77 °FPassing clouds.6 mph89%29.62 "HgN/A
4:00 AM79 °FPassing clouds.8 mph84%29.62 "HgN/A
3:00 AM79 °FPassing clouds.9 mph84%29.62 "HgN/A
2:00 AM79 °FClear.8 mph84%29.62 "Hg10 mi
1:00 AM81 °FClear.7 mph79%29.62 "Hg10 mi
12:00 AM81 °FClear.7 mph79%29.62 "Hg10 mi
11:00 PM
Dec 20
82 °FClear.9 mph74%29.65 "Hg10 mi
10:00 PM84 °FClear.5 mph70%29.62 "Hg10 mi
9:00 PM84 °FPassing clouds.5 mph74%29.59 "HgN/A
8:00 PM86 °FClear.7 mph70%29.56 "Hg10 mi
7:00 PM90 °FPassing clouds.12 mph63%29.56 "HgN/A
6:00 PM91 °FPassing clouds.14 mph59%29.56 "HgN/A
5:00 PM93 °FScattered clouds.14 mph53%29.56 "HgN/A
4:00 PM93 °FScattered clouds.13 mph53%29.59 "HgN/A
3:00 PM93 °FScattered clouds.15 mph53%29.62 "HgN/A
2:00 PM93 °FScattered clouds.14 mph56%29.65 "HgN/A
Weather by CustomWeather, © 2014

See weather overviewHow to use our weather pages